Location: Summit Observatory
(39.5293°N, 75.7290°W)
Time: 16:34:20
(UTC-04:00)

Amateur Radio Satellites - All Passes

Search period start: 27 August 2016 16:04
Search period end: 28 August 2016 16:04
Location: Summit Observatory, 39.5293°N, 75.7290°W

Satellite Date Start Highest point End Downlink Frequencies (MHz)
Time Altitude Azimuth
ITAMSAT 1 27 Aug 16:07:23 16:11:48 28° 264° (W) 16:16:15 435.822/435.867
SWISSCUBE 27 Aug 16:15:33 16:19:52 35° 290° (WNW) 16:24:12 437.505
BEESAT 27 Aug 16:33:00 16:36:58 27° 292° (WNW) 16:40:56 436.000
YUBILEINY 27 Aug 16:39:15 16:46:18 26° 68° (ENE) 16:53:14 435.215
KKS-1 27 Aug 16:44:14 16:48:33 47° 100° (E) 16:52:50 437.445
MOZHAYETS 4 27 Aug 16:47:57 16:52:31 71° 101° (E) 16:57:05
AO-7 27 Aug 16:53:57 17:01:32 38° 261° (W) 17:09:10 29.400- 29.500
Cubesat XI-IV 27 Aug 16:57:27 16:59:00 11° 58° (ENE) 17:00:34 437.490
GOMX 1 27 Aug 16:59:48 17:00:50 11° 58° (ENE) 17:01:52 467.674
HORYU 2 27 Aug 17:03:24 17:07:47 59° 74° (ENE) 17:12:12 437.375
CUTE-I 27 Aug 17:07:57 17:10:47 15° 61° (ENE) 17:13:36 437.470
NOAA 15 27 Aug 17:09:05 17:12:41 19° 63° (ENE) 17:16:18 137.62
BRITE-PL 27 Aug 17:18:37 17:22:55 33° 68° (ENE) 17:27:33 437.365/2234.400
STARS 27 Aug 17:20:45 17:25:06 58° 101° (E) 17:29:25 437.465
ISS 27 Aug 17:27:25 17:27:34 10° 233° (SW) 17:27:43 145.825
LilacSat-2 27 Aug 17:33:32 17:35:58 16° 67° (ENE) 17:38:22 437.200
BEESAT 3 27 Aug 17:40:42 17:42:22 12° 42° (NE) 17:44:03 437.485
NOAA 18 27 Aug 17:43:59 17:48:42 30° 66° (ENE) 17:53:26 137.9125
CUBESAT XI-V 27 Aug 18:07:19 18:12:00 62° 101° (E) 18:16:39 437.345
Cosmos 2491 27 Aug 18:14:26 18:22:47 54° 90° (E) 18:31:12 435.465 / 435.565
KKS-1 27 Aug 18:21:58 18:24:43 16° 296° (WNW) 18:27:27 437.445
MOZHAYETS 4 27 Aug 18:27:29 18:29:05 12° 298° (WNW) 18:30:41
GOMX 1 27 Aug 18:32:52 18:37:54 82° 78° (ENE) 18:43:17 467.674
Cubesat XI-IV 27 Aug 18:32:53 18:38:14 85° 75° (ENE) 18:43:36 437.490
YUBILEINY 27 Aug 18:35:07 18:43:47 67° 268° (W) 18:52:21 435.215
DOVE 4 27 Aug 18:40:34 18:45:28 46° 72° (ENE) 18:50:31 437.250
HORYU 2 27 Aug 18:43:00 18:44:42 12° 269° (W) 18:46:24 437.375
CUTE-I 27 Aug 18:44:51 18:50:10 74° 257° (WSW) 18:55:31 437.470
NOAA 15 27 Aug 18:46:53 18:52:00 54° 259° (W) 18:57:11 137.62
Cosmos 2504 27 Aug 18:55:08 19:02:19 63° 80° (E) 19:09:24 435.465 / 435.565
BRITE-PL 27 Aug 18:57:22 19:01:25 27° 267° (W) 19:05:45 437.365/2234.400
BEESAT 2 27 Aug 18:58:16 19:01:59 34° 53° (NE) 19:05:39 435.950
STARS 27 Aug 18:58:52 19:00:57 13° 297° (WNW) 19:03:02 437.465
LilacSat-2 27 Aug 19:06:29 19:09:59 33° 263° (W) 19:13:30 437.200
HO-68 27 Aug 19:08:59 19:15:18 35° 63° (ENE) 19:21:38 435.675
BEESAT 3 27 Aug 19:16:34 19:20:32 75° 240° (WSW) 19:24:28 437.485
CINEMA 3 27 Aug 19:22:50 19:27:21 35° 70° (ENE) 19:31:50 145.822/145.860
NOAA 18 27 Aug 19:24:08 19:29:12 36° 262° (W) 19:34:18 137.9125
STRAND 1 27 Aug 19:24:21 19:28:05 20° 93° (E) 19:31:48 437.568
CUBEBUG 2 27 Aug 19:43:29 19:46:18 16° 65° (ENE) 19:49:04 437.445
CUBESAT XI-V 27 Aug 19:46:25 19:48:50 14° 297° (WNW) 19:51:15 437.345
SEEDS 27 Aug 19:49:03 19:52:40 30° 71° (ENE) 19:56:18 437.485
AIST 1 27 Aug 19:49:43 19:52:28 16° 71° (ENE) 19:55:12
CANX-2 27 Aug 20:09:43 20:13:55 89° 78° (ENE) 20:18:09 2200.000
Cosmos 2491 27 Aug 20:12:22 20:19:56 32° 289° (WNW) 20:27:36 435.465 / 435.565
GOMX 1 27 Aug 20:15:12 20:16:41 11° 273° (W) 20:18:11 467.674
CUTE 1.7 + AOD 2 27 Aug 20:15:50 20:20:03 90° 334° (NNW) 20:24:15 437.475
Cubesat XI-IV 27 Aug 20:17:43 20:18:55 11° 271° (W) 20:20:08 437.490
DOVE 4 27 Aug 20:19:28 20:23:20 21° 268° (W) 20:27:18 437.250
AAUSAT CUBESAT 2 27 Aug 20:20:16 20:24:01 36° 72° (ENE) 20:27:48 437.432
COMPASS 1 27 Aug 20:27:55 20:31:58 58° 74° (ENE) 20:36:01 437.405
BEESAT 2 27 Aug 20:36:39 20:39:34 19° 249° (WSW) 20:42:27 435.950
YUBILEINY 27 Aug 20:37:26 20:38:43 10° 287° (WNW) 20:39:59 435.215
PCSat 27 Aug 20:40:40 20:45:28 31° 52° (NE) 20:50:14 145.827
Cosmos 2504 27 Aug 20:49:57 20:54:56 21° 278° (W) 20:59:54 435.465 / 435.565
HO-68 27 Aug 20:55:59 21:02:48 45° 260° (W) 21:09:40 435.675
CINEMA 3 27 Aug 21:00:18 21:04:28 26° 266° (W) 21:08:38 145.822/145.860
Oscar 11 27 Aug 21:01:52 21:05:56 43° 73° (ENE) 21:10:01 145.826/435.025
STRAND 1 27 Aug 21:02:36 21:07:26 45° 289° (WNW) 21:12:17 437.568
PRISM 27 Aug 21:04:12 21:07:25 21° 95° (E) 21:10:37 437.425
AIST 2 27 Aug 21:08:58 21:12:51 35° 52° (NE) 21:16:42 435.215
FUNcube-1 27 Aug 21:09:03 21:13:21 49° 74° (ENE) 21:17:34 145.935
UWE-3 27 Aug 21:15:34 21:20:10 82° 258° (WSW) 21:24:40 435.000/436.395/437.385
CUBEBUG 2 27 Aug 21:17:55 21:22:30 52° 260° (W) 21:27:00 437.445
SEEDS 27 Aug 21:25:15 21:28:22 21° 266° (W) 21:31:31 437.485
AIST 1 27 Aug 21:26:08 21:30:16 41° 268° (W) 21:34:22
ZACube-1 27 Aug 21:30:19 21:34:47 88° 239° (WSW) 21:39:13 437.345
AAUSAT CUBESAT 2 27 Aug 21:56:58 21:59:37 17° 267° (W) 22:02:16 437.432
DELFI C3 27 Aug 21:59:02 22:02:57 80° 76° (ENE) 22:06:55 145.870
Cosmos 2499 27 Aug 22:03:06 22:04:53 11° 61° (ENE) 22:06:41 435.465 / 435.565
COMPASS 1 27 Aug 22:07:11 22:07:52 10° 270° (W) 22:08:33 437.405
HUMSAT D 27 Aug 22:16:55 22:21:01 60° 75° (ENE) 22:25:06 437.325/437.525
PCSat 27 Aug 22:23:56 22:28:53 37° 250° (WSW) 22:33:49 145.827
AUBIESAT-1 27 Aug 22:24:22 22:28:21 29° 64° (ENE) 22:32:19 437.475
M-CUBED/EXP-1 PRIME 27 Aug 22:29:36 22:33:57 40° 66° (ENE) 22:38:21 437.505
ANTELSAT 27 Aug 22:29:44 22:32:49 19° 94° (E) 22:35:52 437.575/2403.000
PRISM 27 Aug 22:39:04 22:42:43 30° 290° (WNW) 22:46:21 437.425
Oscar 11 27 Aug 22:39:43 22:42:16 15° 268° (W) 22:44:49 145.826/435.025
FUNcube-1 27 Aug 22:47:25 22:49:49 14° 268° (W) 22:52:11 145.935
AIST 2 27 Aug 22:47:57 22:51:06 21° 249° (WSW) 22:54:14 435.215
GONETS M04 27 Aug 22:50:06 22:58:23 42° 74° (ENE) 23:06:35
ESTCUBE 1 27 Aug 22:58:21 23:02:12 29° 69° (ENE) 23:06:04 437.505/2401.250
TIGRISAT 27 Aug 22:59:56 23:03:57 39° 98° (E) 23:07:56 435.000
AISAT 27 Aug 23:07:02 23:10:21 21° 66° (ENE) 23:13:40 437.250
UKube-1 27 Aug 23:17:05 23:19:08 13° 63° (ENE) 23:21:09 .
UNISAT 6 27 Aug 23:28:24 23:32:42 88° 291° (WNW) 23:36:58 437.425
RS-15 27 Aug 23:29:37 23:33:57 13° 94° (E) 23:38:19 29.354- 29.394
JAS-2 27 Aug 23:31:04 23:33:32 12° 88° (E) 23:36:04 435.910
CUSAT 1 27 Aug 23:40:21 23:43:06 47° 94° (E) 23:46:27 437.405
Cosmos 2499 27 Aug 23:52:14 23:59:19 75° 82° (E) 00:06:28 435.465 / 435.565
VELOX 1 27 Aug 23:53:06 23:57:28 61° 74° (ENE) 00:01:52 145.980
O/OREOS (USA 219) 27 Aug 23:53:42 23:58:12 51° 65° (ENE) 00:02:40 437.305
CUBEBUG 1 27 Aug 23:54:55 23:59:17 79° 77° (ENE) 00:03:44 437.445
HUMSAT D 27 Aug 23:56:39 23:56:59 10° 270° (W) 23:57:19 437.325/437.525
SO-50 27 Aug 23:57:45 00:02:37 76° 120° (ESE) 00:07:27 436.795
AUBIESAT-1 27 Aug 23:58:38 00:02:40 30° 259° (W) 00:06:44 437.475
QB50P1 28 Aug 00:01:02 00:04:40 28° 96° (E) 00:08:16 145.935-145.965
M-CUBED/EXP-1 PRIME 28 Aug 00:04:55 00:08:31 22° 261° (W) 00:12:10 437.505
ANTELSAT 28 Aug 00:05:45 00:09:36 33° 289° (WNW) 00:13:25 437.575/2403.000
DX 1 28 Aug 00:10:05 00:14:24 64° 73° (ENE) 00:18:45 434.975-435.025
POPSAT HIP 1 28 Aug 00:10:53 00:14:45 35° 98° (E) 00:18:36 437.405
SPROUT 28 Aug 00:12:15 00:16:24 48° 73° (ENE) 00:20:34 437.525
50 SAT 28 Aug 00:22:11 00:25:41 53° 260° (W) 00:29:12 437.505
TISAT 1 28 Aug 00:32:22 00:35:13 18° 66° (ENE) 00:38:04 437.305
ESTCUBE 1 28 Aug 00:35:17 00:38:58 25° 265° (W) 00:42:40 437.505/2401.250
TIGRISAT 28 Aug 00:37:34 00:40:20 17° 294° (WNW) 00:43:04 435.000
DUCHIFAT 1 28 Aug 00:38:14 00:42:25 67° 101° (E) 00:46:33 145.980
DANDE 28 Aug 00:38:35 00:41:09 76° 98° (E) 00:43:53 436.750
QB50P2 28 Aug 00:41:03 00:45:18 89° 90° (E) 00:49:30 145.880/145.840
AISAT 28 Aug 00:42:28 00:46:33 35° 262° (W) 00:50:41 437.250
POLYITAN 1 28 Aug 00:43:35 00:47:49 90° 29° (NNE) 00:52:00 437.675
GONETS M04 28 Aug 00:47:01 00:55:08 42° 273° (W) 01:03:13
UKube-1 28 Aug 00:50:25 00:54:40 57° 259° (W) 00:58:57 .
NANOSAT C BR1 28 Aug 00:52:06 00:56:19 77° 284° (WNW) 01:00:30 145.865
JAS-2 28 Aug 01:12:22 01:19:16 75° 103° (ESE) 01:26:52 435.910
ITUPSAT 1 28 Aug 01:14:13 01:15:12 11° 60° (ENE) 01:16:12 437.325
Oscar 19 28 Aug 01:27:25 01:30:58 18° 93° (E) 01:34:29 437.125/150
RS-15 28 Aug 01:32:30 01:43:47 67° 114° (ESE) 01:55:42 29.354- 29.394
VELOX 1 28 Aug 01:32:48 01:34:19 11° 270° (W) 01:35:49 145.980
BUGSAT 1 28 Aug 01:32:55 01:37:02 67° 285° (WNW) 01:41:04 437.445
O/OREOS (USA 219) 28 Aug 01:34:36 01:37:07 15° 261° (W) 01:39:38 437.305
QB50P1 28 Aug 01:36:58 01:40:19 23° 292° (WNW) 01:43:38 145.935-145.965
SO-50 28 Aug 01:40:31 01:43:38 17° 318° (NW) 01:46:44 436.795
SWISSCUBE 28 Aug 01:43:59 01:47:47 25° 67° (ENE) 01:51:36 437.505
POPSAT HIP 1 28 Aug 01:47:20 01:50:16 19° 294° (WNW) 01:53:11 437.405
Cosmos 2499 28 Aug 01:47:27 01:51:30 16° 279° (W) 01:55:36 435.465 / 435.565
DX 1 28 Aug 01:50:04 01:50:59 11° 270° (W) 01:51:54 434.975-435.025
SPROUT 28 Aug 01:50:21 01:52:35 14° 268° (W) 01:54:50 437.525
BEESAT 28 Aug 02:00:37 02:04:49 32° 69° (ENE) 02:09:02 436.000
TISAT 1 28 Aug 02:06:34 02:10:33 38° 262° (W) 02:14:33 437.305
DUCHIFAT 1 28 Aug 02:16:41 02:17:31 11° 297° (WNW) 02:18:21 145.980
PHONESAT 2.4 28 Aug 02:19:59 02:22:51 42° 159° (SSE) 02:25:43 2401.200-2431.200
Gurwin Techsat 1B 28 Aug 02:38:20 02:43:19 40° 98° (E) 02:48:17 435.225
ITAMSAT 1 28 Aug 02:43:23 02:45:17 12° 90° (E) 02:47:11 435.822/435.867
ITUPSAT 1 28 Aug 02:47:33 02:52:19 85° 257° (WSW) 02:57:06 437.325
JAS-2 28 Aug 02:58:49 03:03:43 22° 298° (WNW) 03:08:58 435.910
Oscar 19 28 Aug 03:05:31 03:10:34 51° 288° (WNW) 03:15:34 437.125/150
AO-7 28 Aug 03:06:04 03:09:51 14° 89° (E) 03:13:37 29.400- 29.500
SWISSCUBE 28 Aug 03:21:07 03:25:24 33° 263° (W) 03:29:43 437.505
BEESAT 28 Aug 03:38:42 03:42:36 25° 264° (W) 03:46:31 436.000
KKS-1 28 Aug 03:41:13 03:45:23 39° 71° (ENE) 03:49:34 437.445
RS-15 28 Aug 03:46:14 03:57:04 41° 319° (NW) 04:08:26 29.354- 29.394
MOZHAYETS 4 28 Aug 03:48:40 03:53:08 59° 74° (ENE) 03:57:38
PHONESAT 2.4 28 Aug 03:56:09 03:59:09 74° 357° (N) 04:02:08 2401.200-2431.200
STARS 28 Aug 04:16:14 04:20:27 45° 72° (ENE) 04:24:42 437.465
Gurwin Techsat 1B 28 Aug 04:18:45 04:23:02 25° 294° (WNW) 04:27:18 435.225
ITAMSAT 1 28 Aug 04:20:06 04:25:17 76° 286° (WNW) 04:30:27 435.822/435.867
Cosmos 2491 28 Aug 04:26:22 04:33:22 25° 67° (ENE) 04:40:19 435.465 / 435.565
AO-7 28 Aug 04:55:27 05:03:49 79° 107° (ESE) 05:12:05 29.400- 29.500
HORYU 2 28 Aug 04:57:26 04:58:59 12° 91° (E) 05:00:33 437.375
CUBESAT XI-V 28 Aug 05:09:32 05:14:00 53° 73° (ENE) 05:18:30 437.345
KKS-1 28 Aug 05:18:57 05:22:04 19° 266° (W) 05:25:13 437.445
BRITE-PL 28 Aug 05:25:27 05:28:21 14° 88° (E) 05:31:12 437.365/2234.400
MOZHAYETS 4 28 Aug 05:28:47 05:30:40 12° 270° (W) 05:32:34
PHONESAT 2.4 28 Aug 05:32:34 05:35:33 87° 193° (SSW) 05:38:33 2401.200-2431.200
AO-85 28 Aug 05:35:51 05:41:09 72° 119° (ESE) 05:46:12 145.980
YUBILEINY 28 Aug 05:39:26 05:46:45 31° 83° (E) 05:54:04 435.215
STARS 28 Aug 05:54:21 05:57:01 16° 267° (W) 05:59:41 437.465
RS-15 28 Aug 06:05:55 06:14:20 21° 352° (N) 06:22:55 29.354- 29.394
NOAA 18 28 Aug 06:08:44 06:10:45 12° 90° (E) 06:12:46 137.9125
Cosmos 2491 28 Aug 06:22:11 06:30:56 69° 267° (W) 06:39:41 435.465 / 435.565
HORYU 2 28 Aug 06:31:33 06:35:54 59° 287° (WNW) 06:40:14 437.375
GOMX 1 28 Aug 06:36:20 06:41:00 29° 94° (E) 06:45:25 467.674
STRAND 1 28 Aug 06:39:16 06:43:30 27° 67° (ENE) 06:47:45 437.568
LilacSat-2 28 Aug 06:40:46 06:43:54 25° 96° (E) 06:47:02 437.200
DOVE 4 28 Aug 06:42:39 06:45:02 13° 88° (E) 06:47:20 437.250
CUBESAT XI-V 28 Aug 06:49:14 06:51:41 14° 269° (W) 06:54:09 437.345
AO-7 28 Aug 06:49:30 06:55:42 24° 306° (NW) 07:01:55 29.400- 29.500
Cubesat XI-IV 28 Aug 06:51:19 06:56:12 36° 98° (E) 07:01:04 437.490
BRITE-PL 28 Aug 07:01:39 07:07:23 77° 284° (WNW) 07:12:56 437.365/2234.400
NOAA 15 28 Aug 07:02:43 07:07:59 61° 101° (ESE) 07:13:14 137.62
CUTE-I 28 Aug 07:02:53 07:08:00 47° 99° (E) 07:13:06 437.470
PHONESAT 2.4 28 Aug 07:09:12 07:11:42 24° 207° (SSW) 07:14:10 2401.200-2431.200
AO-85 28 Aug 07:18:26 07:22:05 19° 316° (NW) 07:25:35 145.980
Cosmos 2504 28 Aug 07:31:05 07:39:19 57° 92° (E) 07:47:02 435.465 / 435.565
YUBILEINY 28 Aug 07:34:22 07:43:00 57° 282° (WNW) 07:51:41 435.215
NOAA 18 28 Aug 07:46:31 07:52:01 81° 286° (WNW) 07:57:27 137.9125
PRISM 28 Aug 07:53:47 07:55:59 14° 64° (ENE) 07:58:12 437.425
CANX-2 28 Aug 07:56:43 07:59:24 16° 93° (E) 08:02:05 2200.000
CUTE 1.7 + AOD 2 28 Aug 08:02:43 08:05:25 16° 93° (E) 08:08:07 437.475
GOMX 1 28 Aug 08:14:12 08:19:02 34° 291° (WNW) 08:23:41 467.674
LilacSat-2 28 Aug 08:15:15 08:18:03 20° 291° (WNW) 08:20:51 437.200
STRAND 1 28 Aug 08:17:55 08:22:32 34° 263° (W) 08:27:10 437.568
DOVE 4 28 Aug 08:18:13 08:23:13 63° 286° (WNW) 08:27:54 437.250
RS-15 28 Aug 08:22:38 08:32:49 28° 28° (NNE) 08:42:56 29.354- 29.394
Cosmos 2491 28 Aug 08:23:39 08:26:00 11° 286° (WNW) 08:28:21 435.465 / 435.565
HO-68 28 Aug 08:24:27 08:31:03 38° 98° (E) 08:37:34 435.675
ISS 28 Aug 08:27:21 08:30:25 38° 136° (SE) 08:33:31 145.825
SO-50 28 Aug 08:30:20 08:34:50 50° 54° (NE) 08:39:12 436.795
Cubesat XI-IV 28 Aug 08:31:40 08:36:06 28° 294° (WNW) 08:40:31 437.490
BRITE-PL 28 Aug 08:43:14 08:44:49 11° 302° (WNW) 08:46:25 437.365/2234.400
CUTE-I 28 Aug 08:43:44 08:47:42 22° 296° (WNW) 08:51:39 437.470
NOAA 15 28 Aug 08:43:49 08:47:14 18° 298° (WNW) 08:50:39 137.62
CINEMA 3 28 Aug 08:55:23 08:59:55 89° 90° (E) 09:04:13 145.822/145.860
BEESAT 3 28 Aug 09:06:52 09:09:51 21° 112° (ESE) 09:12:52 437.485
UWE-3 28 Aug 09:07:09 09:10:11 19° 93° (E) 09:13:12 435.000/436.395/437.385
SEEDS 28 Aug 09:08:35 09:12:47 67° 101° (ESE) 09:16:58 437.485
CUBEBUG 2 28 Aug 09:10:04 09:13:52 32° 97° (E) 09:17:36 437.445
ZACube-1 28 Aug 09:20:41 09:23:29 17° 93° (E) 09:26:15 437.345
Cosmos 2504 28 Aug 09:26:01 09:33:01 29° 289° (WNW) 09:39:41 435.465 / 435.565
PRISM 28 Aug 09:26:57 09:30:52 45° 260° (W) 09:34:51 437.425
ANTELSAT 28 Aug 09:27:55 09:30:57 18° 66° (ENE) 09:33:56 437.575/2403.000
NOAA 18 28 Aug 09:30:21 09:31:46 11° 303° (WNW) 09:33:10 137.9125
CANX-2 28 Aug 09:31:27 09:35:24 39° 288° (WNW) 09:39:21 2200.000
CUTE 1.7 + AOD 2 28 Aug 09:37:27 09:41:24 39° 288° (WNW) 09:45:20 437.475
AAUSAT CUBESAT 2 28 Aug 09:38:11 09:42:21 79° 103° (ESE) 09:46:32 437.432
DELFI C3 28 Aug 09:39:48 09:40:52 11° 91° (E) 09:41:56 145.870
COMPASS 1 28 Aug 09:46:50 09:50:59 63° 285° (WNW) 09:55:07 437.405
AIST 1 28 Aug 09:53:50 09:58:08 67° 279° (W) 10:02:31
TIGRISAT 28 Aug 09:57:25 10:01:32 33° 71° (ENE) 10:05:36 435.000
ISS 28 Aug 10:04:08 10:06:58 26° 333° (NNW) 10:09:48 145.825
CUSAT 1 28 Aug 10:10:34 10:16:53 48° 77° (ENE) 10:24:19 437.405
SO-50 28 Aug 10:11:59 10:14:51 17° 251° (WSW) 10:17:40 436.795
HO-68 28 Aug 10:12:09 10:18:43 40° 295° (WNW) 10:25:15 435.675
Oscar 11 28 Aug 10:25:35 10:29:54 80° 282° (WNW) 10:34:12 145.826/435.025
UNISAT 6 28 Aug 10:25:42 10:30:17 72° 76° (ENE) 10:34:48 437.425
BEESAT 2 28 Aug 10:26:19 10:30:15 88° 121° (ESE) 10:34:15 435.950
FUNcube-1 28 Aug 10:33:58 10:38:05 67° 285° (WNW) 10:42:10 145.935
RS-15 28 Aug 10:35:26 10:47:53 75° 56° (NE) 11:00:03 29.354- 29.394
UWE-3 28 Aug 10:43:01 10:46:42 31° 290° (WNW) 10:50:21 435.000/436.395/437.385
BEESAT 3 28 Aug 10:43:50 10:47:20 30° 308° (NW) 10:50:52 437.485
SEEDS 28 Aug 10:46:59 10:47:54 11° 297° (WNW) 10:48:50 437.485
CUBEBUG 2 28 Aug 10:47:14 10:50:17 19° 293° (WNW) 10:53:16 437.445
QB50P1 28 Aug 10:53:01 10:56:06 20° 67° (ENE) 10:59:12 145.935-145.965
ZACube-1 28 Aug 10:56:06 10:59:53 34° 288° (WNW) 11:03:37 437.345
POPSAT HIP 1 28 Aug 11:02:39 11:06:07 24° 69° (ENE) 11:09:35 437.405
ANTELSAT 28 Aug 11:02:54 11:07:18 45° 261° (W) 11:11:39 437.575/2403.000
DELFI C3 28 Aug 11:12:05 11:16:00 52° 285° (WNW) 11:19:54 145.870
DANDE 28 Aug 11:12:46 11:18:15 59° 80° (E) 11:25:21 436.750
PCSat 28 Aug 11:21:33 11:26:17 32° 109° (ESE) 11:31:03 145.827
JAS-2 28 Aug 11:25:59 11:30:08 24° 64° (ENE) 11:34:29 435.910
DUCHIFAT 1 28 Aug 11:28:56 11:32:57 42° 72° (ENE) 11:36:59 145.980
QB50P2 28 Aug 11:32:22 11:36:33 57° 74° (ENE) 11:40:46 145.880/145.840
TIGRISAT 28 Aug 11:34:37 11:38:14 22° 265° (W) 11:41:49 435.000
POLYITAN 1 28 Aug 11:34:52 11:39:04 58° 74° (ENE) 11:43:17 437.675
HUMSAT D 28 Aug 11:36:32 11:40:34 61° 285° (WNW) 11:44:36 437.325/437.525
AUBIESAT-1 28 Aug 11:39:08 11:42:01 19° 98° (E) 11:44:44 437.475
NANOSAT C BR1 28 Aug 11:42:50 11:47:04 67° 75° (ENE) 11:51:18 145.865
ISS 28 Aug 11:43:24 11:44:19 11° 353° (N) 11:45:14 145.825
M-CUBED/EXP-1 PRIME 28 Aug 11:44:56 11:48:29 28° 100° (E) 11:51:46 437.505
CUBEBUG 1 28 Aug 11:45:44 11:48:24 16° 92° (E) 11:51:03 437.445
VELOX 1 28 Aug 11:46:05 11:47:56 12° 91° (E) 11:49:48 145.980
GONETS M04 28 Aug 11:49:47 11:58:02 49° 89° (E) 12:06:22
50 SAT 28 Aug 11:52:47 11:54:21 12° 92° (E) 11:55:54 437.505
CUSAT 1 28 Aug 11:52:56 11:58:44 32° 269° (W) 12:05:20 437.405
DX 1 28 Aug 12:01:20 12:02:56 12° 91° (E) 12:04:32 434.975-435.025
UNISAT 6 28 Aug 12:07:00 12:07:25 10° 270° (W) 12:07:51 437.425
BEESAT 2 28 Aug 12:07:35 12:08:40 11° 319° (NW) 12:09:45 435.950
BUGSAT 1 28 Aug 12:21:03 12:25:17 72° 75° (ENE) 12:29:32 437.445
Cosmos 2499 28 Aug 12:26:39 12:34:44 65° 93° (E) 12:42:14 435.465 / 435.565
ESTCUBE 1 28 Aug 12:27:31 12:32:04 72° 102° (ESE) 12:36:35 437.505/2401.250
QB50P1 28 Aug 12:27:44 12:31:38 34° 263° (W) 12:35:33 145.935-145.965
AISAT 28 Aug 12:33:08 12:37:25 44° 99° (E) 12:41:39 437.250
POPSAT HIP 1 28 Aug 12:38:08 12:41:46 27° 264° (W) 12:45:26 437.405
UKube-1 28 Aug 12:38:49 12:42:22 24° 96° (E) 12:45:54 .
Oscar 19 28 Aug 12:43:14 12:47:23 25° 66° (ENE) 12:51:34 437.125/150
AIST 2 28 Aug 12:43:20 12:47:26 81° 302° (WNW) 12:51:35 435.215
JUGNU 28 Aug 12:46:56 12:47:56 10° 180° (S) 12:48:57 437.505
RS-15 28 Aug 12:49:10 12:59:16 32° 257° (WSW) 13:09:14 29.354- 29.394
DANDE 28 Aug 12:56:36 13:00:50 21° 269° (W) 13:05:49 436.750
PCSat 28 Aug 13:04:38 13:09:35 35° 306° (NW) 13:14:34 145.827
DUCHIFAT 1 28 Aug 13:06:19 13:08:50 15° 268° (W) 13:11:21 145.980
JAS-2 28 Aug 13:10:11 13:14:59 38° 263° (W) 13:20:05 435.910
QB50P2 28 Aug 13:11:17 13:12:41 11° 269° (W) 13:14:06 145.880/145.840
AUBIESAT-1 28 Aug 13:13:02 13:16:32 29° 296° (WNW) 13:19:49 437.475
POLYITAN 1 28 Aug 13:13:53 13:15:13 11° 269° (W) 13:16:33 437.675
M-CUBED/EXP-1 PRIME 28 Aug 13:19:42 13:22:49 21° 299° (WNW) 13:25:45 437.505
VELOX 1 28 Aug 13:20:21 13:24:45 57° 286° (WNW) 13:29:06 145.980
ISS 28 Aug 13:20:23 13:21:57 13° 13° (NNE) 13:23:31 145.825
CUBEBUG 1 28 Aug 13:20:40 13:24:54 45° 288° (WNW) 13:29:05 437.445
50 SAT 28 Aug 13:24:41 13:28:04 38° 287° (WNW) 13:31:28 437.505
SPROUT 28 Aug 13:34:40 13:38:58 75° 283° (WNW) 13:43:12 437.525
DX 1 28 Aug 13:35:09 13:39:29 58° 286° (WNW) 13:43:46 434.975-435.025
GONETS M04 28 Aug 13:47:11 13:55:01 36° 288° (WNW) 14:02:58
TISAT 1 28 Aug 13:51:18 13:55:05 32° 97° (E) 13:58:50 437.305
Gurwin Techsat 1B 28 Aug 13:58:23 14:03:35 59° 73° (ENE) 14:08:49 435.225
ITAMSAT 1 28 Aug 13:59:48 14:03:18 19° 63° (ENE) 14:06:50 435.822/435.867
AO-7 28 Aug 14:03:43 14:09:38 22° 53° (NE) 14:15:33 29.400- 29.500
O/OREOS (USA 219) 28 Aug 14:04:50 14:09:17 72° 110° (ESE) 14:13:49 437.305
ESTCUBE 1 28 Aug 14:06:45 14:08:14 11° 298° (WNW) 14:09:45 437.505/2401.250
AO-85 28 Aug 14:09:16 14:13:20 41° 53° (NE) 14:17:07 145.980
AISAT 28 Aug 14:10:37 14:13:31 17° 295° (WNW) 14:16:24 437.250
UKube-1 28 Aug 14:14:40 14:18:21 28° 291° (WNW) 14:22:03 .
Oscar 19 28 Aug 14:21:42 14:26:28 38° 262° (W) 14:31:19 437.125/150
Cosmos 2499 28 Aug 14:22:06 14:28:19 24° 290° (WNW) 14:34:14 435.465 / 435.565
AIST 2 28 Aug 14:25:50 14:26:36 10° 320° (NW) 14:27:22 435.215
ITUPSAT 1 28 Aug 14:49:24 14:53:23 26° 96° (E) 14:57:22 437.325
ISS 28 Aug 14:55:57 14:59:06 42° 32° (NNE) 15:02:14 145.825
SWISSCUBE 28 Aug 15:21:28 15:26:13 65° 102° (ESE) 15:30:57 437.505
TISAT 1 28 Aug 15:27:26 15:30:31 20° 293° (WNW) 15:33:35 437.305
ITAMSAT 1 28 Aug 15:37:17 15:42:21 54° 260° (W) 15:47:26 435.822/435.867
BEESAT 28 Aug 15:38:30 15:43:17 87° 106° (ESE) 15:48:03 436.000
Gurwin Techsat 1B 28 Aug 15:40:37 15:43:54 16° 268° (W) 15:47:12 435.225
MOZHAYETS 4 28 Aug 15:45:54 15:48:30 15° 92° (E) 15:51:06
O/OREOS (USA 219) 28 Aug 15:47:23 15:49:15 12° 307° (NW) 15:51:06 437.305
AO-85 28 Aug 15:50:48 15:53:19 16° 251° (WSW) 15:55:44 145.980
YUBILEINY 28 Aug 15:51:52 15:55:43 13° 59° (ENE) 15:59:32 435.215
HORYU 2 28 Aug 15:55:31 15:56:43 11° 62° (ENE) 15:57:57 437.375
